Location: Stigler
(35.2540°N, 95.1230°W)
Time: 17:18:34
(UTC-05:00)

Daily predictions for brighter satellites

Satellite Brightness Start Highest point End
(mag) Time Altitude Azimuth Time Altitude Azimuth Time Altitude Azimuth
ATLAS CENTAUR Rocket 4.5 18:56:23 10° WSW 19:02:14 56° S 19:38:53 10° ESE
Coronas F rocket 2.6 20:57:53 10° SE 21:00:01 22° E 21:02:09 10° NE
Abrixas rocket 3.0 20:57:14 10° NW 21:00:31 43° NNE 21:03:46 10° ESE
OPS 6431 4.5 20:58:32 10° NNW 21:01:30 83° ENE 21:04:32 10° SSE
CZ-4 DEB 3.5 20:58:41 10° SE 21:01:37 35° ENE 21:04:32 10° N
Cosmos 389 Rocket 3.5 21:01:06 10° NNW 21:04:27 48° W 21:07:49 10° S
BREEZE-M DEB (TANK) 3.7 21:05:10 10° W 21:07:16 36° NNW 21:10:29 10° NE
SL-8 R/B 3.8 21:03:56 10° SW 21:08:46 83° NW 21:13:36 10° NE
USA 234 4.4 21:05:43 10° E 21:09:51 18° ESE 21:13:57 10° SSE
deb Chang Zheng 4 4.4 21:07:42 10° NE 21:11:38 31° E 21:15:33 10° SSE
Cosmos 2184 Rocket 4.2 21:06:00 10° SSE 21:11:54 51° E 21:17:50 10° NNE
YAOGAN 11 4.3 21:10:36 10° SSE 21:14:58 57° ENE 21:19:27 10° N
COSMOS 2406 4.0 21:10:21 10° N 21:15:38 36° ENE 21:20:21 12° SE
Cosmos 1733 Rocket 3.4 21:14:01 10° SSE 21:18:14 46° E 21:22:27 10° NNE
Cosmos 2056 Rocket 3.5 21:16:52 10° S 21:21:57 59° ESE 21:27:00 10° NNE
CZ-3C R/B 4.0 20:41:25 10° WSW 21:23:39 32° S 21:30:49 14° SE
ATLAS 5 CENTAUR R/B 3.0 21:17:57 10° NNW 21:23:44 44° NE 21:28:52 14° ESE
Cosmos 1371 Rocket 4.0 21:18:41 10° SSW 21:24:01 87° ESE 21:29:20 10° NNE
USA 186 2.9 21:23:23 10° S 21:26:12 40° W 21:29:12 10° NNW
Cosmos 2181 Rocket 4.5 21:21:31 10° NNW 21:27:53 67° W 21:34:11 10° S
Cosmos 1356 Rocket 3.4 21:26:44 10° S 21:30:55 89° E 21:35:12 10° N
Cosmos 2278 Rocket 3.3 21:27:11 12° SSE 21:31:03 22° E 21:35:21 10° NE
Cosmos 1844 4.2 21:28:38 10° S 21:33:53 38° ESE 21:39:12 10° NE
CENTAUR R/B 3.2 21:29:27 10° NNW 21:37:26 76° ENE 21:44:20 16° SE
Cosmos 2084 4.4 21:37:52 21° ESE 21:38:07 21° ESE 21:41:03 10° ENE
Cosmos 1825 3.6 21:37:57 19° ESE 21:38:39 20° E 21:41:30 10° NE
ATLAS 2A CENTAUR R/B 2.8 21:40:18 10° SSW 21:40:48 10° S 21:40:50 10° S
Nimbus 7 Rocket 4.4 21:35:12 10° NNE 21:41:04 60° ESE 21:46:58 10° S
SL-27 R/B 3.4 21:37:56 10° N 21:41:17 33° ENE 21:42:44 24° ESE
Cosmos 1844 Rocket 2.7 21:36:12 10° S 21:41:46 63° ESE 21:47:21 10° NNE
H-2A R/B 2.2 21:41:12 18° SSE 21:44:16 58° ENE 21:48:28 10° N
COS B Rocket 4.0 21:42:10 10° NNE 21:45:56 33° E 21:47:18 26° SE
NOSS 2-2 (D) 4.1 21:42:05 10° SW 21:46:05 58° WNW 21:50:35 10° NNE
Cosmos 2074 Rocket 4.2 21:40:01 10° S 21:46:18 78° W 21:52:35 10° N
CZ-4 SHROUD 4.4 21:50:15 25° E 21:50:35 25° ENE 21:53:12 10° NNE
YAOGAN 6 3.7 21:52:00 25° E 21:52:37 26° ENE 21:55:35 10° NNE
Cosmos 1408 3.5 21:52:39 28° ESE 21:53:06 29° E 21:56:20 10° NNE
Cosmos 1610 Rocket 4.4 21:48:51 10° S 21:54:59 83° E 22:01:12 10° N
Meteor 1-27 Rocket 4.0 21:52:40 10° N 21:58:04 49° ENE 22:00:52 26° SE
MetOp-A 4.4 21:55:26 24° SE 21:58:24 50° ENE 22:03:32 10° N
Cosmos 1939 Rocket 2.9 21:56:34 20° S 21:59:12 72° W 22:03:05 10° NNW
Envisat 2.9 21:57:05 18° SSE 22:00:52 90° WSW 22:05:58 10° NNW
Cosmos 1782 2.7 21:57:51 10° N 22:01:54 86° E 22:04:02 27° S
Okean 2 Rocket 3.9 22:02:50 29° ESE 22:03:20 29° E 22:07:10 10° NNE
Nadezhda 3 Rocket 4.2 21:58:27 10° N 22:04:42 57° E 22:08:16 26° SSE
UNK 4.5 21:59:28 10° NNE 22:05:36 60° ESE 22:10:26 16° S
H-2A R/B 3.8 22:05:40 17° E 22:07:04 18° ENE 22:10:36 10° NNE
PSLV R/B 3.3 22:07:13 49° ENE 22:07:13 49° ENE 22:10:03 10° N
Sich 1 Rocket 3.7 22:03:58 11° S 22:08:21 81° W 22:12:58 10° N
Atlas Centaur 2 1.6 22:05:49 10° WSW 22:09:10 38° S 22:09:15 38° S
Cosmos 1238 Rocket 3.2 22:07:52 10° NNE 22:10:41 35° ENE 22:10:41 35° ENE
SPOT 5 3.0 22:08:05 26° SSE 22:11:03 81° ENE 22:16:25 10° N
Cosmos 1242 Rocket 4.5 22:08:41 10° NNE 22:10:42 17° ENE 22:10:42 17° ENE
ERBS 2.2 22:07:49 10° NW 22:11:17 82° NE 22:11:51 59° SE
Cosmos 1606 2.6 22:11:39 10° N 22:15:35 72° E 22:16:30 50° SSE
Cosmos 1674 Rocket 3.9 22:11:59 10° NNW 22:16:24 63° W 22:19:00 24° SSW
Cosmos 2341 Rocket 3.9 22:14:23 20° S 22:18:56 72° E 22:25:11 10° N
Terra 3.5 22:21:17 18° ENE 22:21:39 18° ENE 22:24:50 10° NNE
SPOT 1/Viking Rocket 3.7 22:20:11 38° SE 22:21:52 55° ENE 22:26:56 10° N
Cosmos 407 Rocket 3.4 22:17:52 10° NNW 22:23:09 87° ENE 22:25:16 38° SSE
Cosmos 1452 Rocket 3.5 22:19:52 10° SSW 22:25:07 84° WNW 22:30:26 10° NNE
Cosmos 1782 Rocket 3.5 22:24:25 47° SSE 22:25:33 69° E 22:30:01 10° NNE
GPS 2-05 Rocket1 3.8 22:23:35 10° WSW 22:26:02 36° SW 22:26:02 36° SW
PSLV R/B 3.4 22:28:15 10° WNW 22:31:34 76° NNW 22:31:34 76° NNW
Cosmos 1190 Rocket 4.4 22:29:42 10° NNW 22:34:46 56° WSW 22:36:59 32° SSW
Cosmos 1140 Rocket 4.0 22:32:28 10° N 22:37:20 41° ENE 22:37:56 40° E
Abrixas rocket 4.4 22:34:53 10° W 22:36:58 19° WSW 22:36:58 19° WSW
Meteor 2-13 Rocket 4.3 22:35:48 35° S 22:38:32 75° E 22:44:42 10° N
Okean 3 3.3 22:38:16 10° N 22:42:34 89° W 22:42:53 77° S
SL-8 Rocket 4.0 22:41:38 43° SSE 22:43:37 65° E 22:49:49 10° NNE
Cosmos 1975 Rocket 2.8 22:40:29 10° N 22:44:49 79° E 22:44:54 79° ESE
CZ-4B R/B 3.7 22:46:55 10° N 22:51:50 64° WNW 22:53:56 33° SW
USA 234 3.1 22:46:46 10° NE 22:53:19 85° SE 22:59:51 10° SW
USA 245 4.3 22:56:42 35° NW 22:56:42 35° NW 22:59:05 10° NNW
Meteor 1-14 Rocket 4.1 22:55:28 61° SSE 22:56:21 72° E 23:01:57 10° NNE
SL-08 RB Rocket 3.6 22:57:06 85° S 22:57:14 89° WSW 23:01:52 10° NNW
DMSP B5D2-2 4.4 22:52:11 10° NNE 22:56:39 47° ENE 22:56:39 47° ENE
Cosmos 1184 Rocket 4.4 22:58:00 34° WNW 22:58:00 34° WNW 23:00:48 10° N
FALCON 9 R/B 4.4 22:26:42 10° WNW 22:59:14 46° SW 23:04:14 31° S
Cosmos 1850 Rocket 4.3 22:56:47 10° N 23:02:00 53° ENE 23:02:05 53° ENE
ARGOS 3.2 23:01:22 55° SSW 23:02:25 70° WSW 23:07:46 10° NNW
Intercosmos 25 4.1 23:06:57 46° WNW 23:06:57 46° WNW 23:09:53 10° N
ATLAS 5 CENTAUR R/B 3.7 23:03:00 10° NW 23:08:20 31° WSW 23:10:26 25° SW
Cosmos 2151 Rocket 4.1 23:09:29 52° NNE 23:09:29 52° NNE 23:13:01 10° N
CZ-4 R/B 4.3 23:04:00 10° N 23:08:35 57° WNW 23:09:28 48° WSW
Cosmos 1954 Rocket 4.3 23:06:34 10° NNW 23:11:40 57° WSW 23:12:09 55° SW
Cosmos 2278 Rocket 3.3 23:09:26 10° SW 23:14:47 42° WNW 23:20:10 10° N
Cosmos 864 Rocket 4.3 23:15:07 71° SSE 23:15:45 80° E 23:21:55 10° N
COSMOS 2487 4.4 23:16:43 10° NNW 23:18:52 29° NW 23:18:52 29° NW
Cosmos 1741 Rocket 4.0 23:15:18 10° NNW 23:20:10 73° NNE 23:20:10 73° NNE
Cosmos 489 Rocket 4.5 23:15:08 10° NNW 23:21:18 69° WSW 23:22:09 61° SSW
Cosmos 2366 rocket 3.9 23:21:19 65° SSW 23:22:19 85° W 23:28:40 10° N
Cosmos 1833 Rocket 3.5 23:17:36 10° N 23:22:38 38° ENE 23:22:38 38° ENE
Cosmos 2082 Rocket 2.4 23:32:06 10° NNW 23:37:16 63° NE 23:37:16 63° NE
USA 229 DEB 4.1 23:31:50 10° NNW 23:38:46 52° NE 23:39:43 49° E
USA 229 4.1 23:31:56 10° NNW 23:38:52 52° NE 23:39:49 49° E
H-2A R/B 2.7 23:46:19 52° W 23:46:19 52° W 23:51:16 10° NNW
